TUBSAT A

Satellite information

Favourite Embed

Satellite Type and Status

PAYLOADIN ORBIT

Key statistics

Satellite TUBSAT A at a glance.

Uptime

12409

Days in orbit

Revolutions

≈ 14.4

Per day

Orbit

SSO

Sun Synchronous Orbit

Inclination

98.4

Latest

Satellite identification and parameters

Extended collection of information and parameters for TUBSAT A.

Object identification

Identified? True

Debris? False

Object name: TUBSAT A

International designator: 1991-050D

Object number (NORAD): 21577

Object ID (CCSDS): 21577

Country: GERMANY (GER)

Current information (Y/N): Y

RCS size: MEDIUM

Orbital parameters

Period: 99.973 minutes

Inclination: 98.4256 deg

SMA: 7135.37 km

Apoapsis: 761.184 km

Periapsis: 753.286 km

RAAN: 258.1442 deg

Eccentricy: 0.0005534

Argument of periapsis: 209.552 deg

Mean anomaly: 150.5356 deg

Mean motion: 14.40383084 rev/day

Mean motion (dot): 0.00000102 rev/day2

B* drag term: 0.000045888 1/REarth

Two-line elements (TLE)

Creation date: July 6, 2025, 6:36 a.m.

Reference frame: TEME

Reference center: EARTH

Epoch: July 6, 2025, 5:06 a.m. UTC

TLE line 0: 0 TUBSAT A

TLE line 1: 1 21577U 91050D 25187.21309986 .00000102 00000-0 45888-4 0 9998

TLE line 2: 2 21577 98.4256 258.1442 0005534 209.5520 150.5356 14.40383084783563

Live tracking on map

Real-time ground track for satellite TUBSAT A.

In-orbit conjunctions

There are no conjunctions computed for TUBSAT A, at the moment. Check back to stay up to date, as we update our databases every day.

Go to all conjunctions

Associated space launch

ERS (European Remote Sensing Satellite) are a family of multi-disciplinary Earth Observation Satellites.

TUBSAT A was lifted into orbit during the mission ‘Ariane 40 | ERS-1’, on board a Ariane 40 space rocket.

The launch took place on July 17, 1991, 1:46 a.m. from Ariane Launch Area 2.

For more information about the launch, click the button.

Launch to space Ariane 40 | ERS-1
Ariane 40 | ERS-1

Agency: N/A

Status: Launch Successful

Launch date: July 17, 1991, 1:46 a.m. UTC

Rocket: Ariane 40

Launch pad: Ariane Launch Area 2

Location: Guiana Space Centre, French Guiana

...

Latest news about this satellite

There are no fresh news available about this satellite. Check back as we update our databases every day.


Newsletter sign-up

Weekly statistics, charts and insights to help you stay on top of the space industry.